[[{"header":{"parameterUnit":"m.s-1","parameterCategory":1,"la1":30.2991,"la2":30.254,"lo1":-89.0895,"lo2":-89.0444,"dy":0.0017,"dx":0.0017,"nx":28,"ny":28,"refTime":"2025-07-19T21:00:00:Z","depth":0,"parameterNumber":2,"parameterNumberName":"U-component_of_WINDS"},"data":[0,0,0,0,0,0,0,0,0,0,0,0,0,0,0,0,0,0,0,0,0,0,0,0,0,0,0,0,0,0,0,0,0,0,0,0,0,0,0,0,0,0,0,0,0,0,0,0,0,0,0,0,0,0,0,0,0,0,3.6389,3.639,0,3.6491,3.6492,3.6493,3.6449,3.6446,3.6444,3.6441,3.6545,3.655,3.6555,0,0,0,0,0,0,0,0,0,0,0,0,0,3.6154,3.6159,3.6389,3.639,3.6392,3.6491,3.6492,3.6493,3.6449,3.6446,3.6443,3.644,3.6543,3.6549,3.6555,0,0,0,0,0,0,0,0,0,0,0,0,0,3.6256,3.616,3.6389,3.6382,3.6382,3.649,3.6492,3.6494,3.645,3.6446,3.6442,3.6439,3.6541,3.6548,3.6556,3.6678,0,0,3.6579,3.6583,0,0,0,0,0,0,0,0,3.625,3.6265,3.6381,3.6382,3.6383,3.6453,3.6447,3.6555,3.6451,3.6424,3.6441,3.6437,3.6517,3.6527,3.6554,3.6682,3.6687,3.658,3.6585,3.6588,3.659,0,0,0,0,0,0,0,3.6243,3.626,3.6429,3.6383,3.6384,3.6372,3.6382,3.6467,3.649,3.6426,3.6423,3.6436,3.6517,3.6547,3.6556,3.6688,3.658,3.6586,3.6591,3.6594,3.6917,3.692,0,0,0,0,0,0,3.6236,3.6254,3.6426,3.6432,3.6306,3.6379,3.6391,3.6434,3.6489,3.6494,3.6439,3.6433,3.6535,3.6547,3.6559,3.6701,3.6588,3.6595,3.6599,3.6913,3.6917,3.6922,0,0,0,0,0,0,3.6232,3.6252,3.6422,3.6343,3.6363,3.6387,3.6436,3.6438,3.6468,3.6499,3.6502,3.6465,3.6533,3.6549,3.6647,3.6705,3.6598,3.6605,3.6908,3.6914,3.692,3.6989,0,0,0,0,0,0,3.6225,3.6251,3.6298,3.6344,3.6368,3.6509,3.644,3.6443,3.6481,3.6475,3.6524,3.6529,3.6531,3.6636,3.6655,3.6713,3.6611,3.6903,3.6911,3.6918,3.6982,3.6997,3.7009,0,0,0,0,0,3.6217,3.6315,3.6301,3.6322,3.6428,3.6513,3.6526,3.6527,3.6486,3.6533,3.6552,3.6527,3.6696,3.6647,3.6667,3.6729,3.6899,3.6908,3.6917,3.6975,3.6994,3.7009,0,0,0,0,0,0,3.6275,3.632,3.6306,3.6421,3.6464,3.6505,3.6564,3.6547,3.6602,3.6594,3.6592,3.6604,3.6705,3.6727,3.6672,3.6847,3.6791,3.6805,3.6828,3.6846,3.686,3.6851,3.6617,0,0,0,0,0,3.6302,3.6368,3.6404,3.6502,3.6524,3.6541,3.6578,3.6575,3.6618,3.6636,3.6663,3.6705,3.6767,3.6808,3.6868,3.6985,3.6993,3.7037,3.7051,3.7063,3.7073,3.7133,3.7152,3.6951,3.6951,3.6951,0,0,3.6357,3.639,3.6432,3.6515,3.6547,3.6614,3.6556,3.6631,3.6679,3.6647,3.6741,3.6762,3.6809,3.6917,3.6966,3.6938,3.7131,3.7074,3.7083,3.7088,3.7144,3.7163,3.718,3.6957,3.6956,3.6955,0,0,3.649,3.6524,3.6607,3.664,3.6689,3.6699,3.6719,3.6763,3.6775,3.687,3.6845,3.6904,3.7012,3.7045,3.7076,3.7219,3.7197,3.7239,3.7311,3.7369,3.7384,3.7398,3.7445,3.7463,3.725,3.7251,3.7251,0,3.6552,3.6653,3.6652,3.6727,3.6763,3.6736,3.6819,3.6852,3.6918,3.6942,3.6911,3.7043,3.7074,3.7186,3.7221,3.7249,3.7269,3.7232,3.7382,3.7396,3.7409,3.7454,3.7472,3.7255,3.7254,3.7254,3.7254,0,3.6725,3.6795,3.6856,3.6919,3.6962,3.7041,3.705,3.7094,3.7086,3.7099,3.7193,3.7228,3.7292,3.7319,3.7314,3.7431,3.7411,3.7382,3.7325,3.7433,3.7474,3.7492,3.7261,3.726,3.7258,3.7257,0,0,3.6898,3.6958,3.698,3.7006,3.7058,3.7111,3.7188,3.7249,3.7285,3.7331,3.7393,3.7484,3.7455,3.749,3.7488,3.754,3.7645,3.7503,3.7504,3.7525,3.7772,3.7791,3.7811,3.7632,3.7635,3.7638,3.7766,0,3.7033,3.7166,3.7167,3.7289,3.7351,3.7326,3.7392,3.743,3.7443,3.7497,3.7512,3.7574,3.7534,3.7555,3.7605,3.7622,3.7694,3.7613,3.7687,3.7689,3.7672,3.7834,3.7856,3.7975,3.7783,3.7786,3.7788,0,3.7208,3.7257,3.7386,3.7424,3.745,3.751,3.7564,3.7617,3.7658,3.7664,3.7702,3.7691,3.7766,3.7709,3.7811,3.7756,3.7786,3.7799,3.7804,3.7808,3.7743,3.7839,3.8014,3.803,3.7815,3.7813,3.7811,0,3.7316,3.7416,3.7504,3.7528,3.7577,3.7618,3.764,3.7677,3.7713,3.7761,3.7784,3.784,3.787,3.7914,3.7917,3.7876,3.8018,3.7963,3.8023,3.8023,3.8052,3.805,3.823,3.8078,3.8077,3.8077,3.8077,0,3.7464,3.7543,3.7553,3.7607,3.7693,3.7693,3.7778,3.7796,3.7829,3.7884,3.7867,3.792,3.7923,3.7976,3.7979,3.8061,3.8076,3.8081,3.808,3.808,3.8079,3.8098,3.8088,3.8082,3.8081,3.808,3.8079,0,3.7599,3.761,3.7704,3.7741,3.7752,3.7813,3.7844,3.7895,3.7906,3.7977,3.7993,3.8011,3.8072,3.808,3.8153,3.8155,3.8252,3.8245,3.8238,3.8235,3.8294,3.8287,3.849,3.8515,3.8349,3.8351,3.8352,0,3.7691,3.7751,3.7793,3.7829,3.7853,3.7912,3.7947,3.7948,3.7986,3.8035,3.8079,3.8139,3.8186,3.8286,3.8304,3.8358,3.835,3.8417,3.8358,3.8355,3.8346,3.8341,3.8345,3.8428,3.843,3.8431,3.8432,0,3.7852,3.7854,3.7906,3.796,3.8003,3.8046,3.8085,3.8116,3.8121,3.8164,3.8226,3.8263,3.8336,3.8394,3.8447,3.8468,3.845,3.8451,3.8467,3.8466,3.8458,3.8459,3.8265,3.8446,3.8444,3.8443,3.8443,3.8442,3.7966,3.8016,3.8053,3.8111,3.8141,3.8178,3.8225,3.8242,3.8294,3.8352,3.835,3.8418,3.8454,3.8523,3.8548,3.8599,3.8577,3.8602,3.8607,3.8612,3.8616,3.8453,3.861,3.8609,3.8609,3.8609,3.8609,0,3.8123,3.8144,3.8198,3.8253,3.8298,3.8278,3.832,3.8358,3.8418,3.8454,3.85,3.8569,3.8625,3.8647,3.8701,3.8738,3.8731,3.8752,3.8747,3.8752,3.8635,3.8614,3.8756,3.8756,3.8756,3.8756,3.8756,3.8756,3.8209,3.8291,3.8297,3.8392,3.8414,3.8479,3.8504,3.8537,3.8565,3.8643,3.8689,3.8703,3.8732,3.8788,3.8837,3.8842,3.8861,3.8885,3.8885,3.8776,3.876,3.8746,3.8726,3.889,3.889,3.8997,3.8998,3.8999]},{"header":{"parameterUnit":"m.s-1","parameterCategory":1,"la1":30.2991,"la2":30.254,"lo1":-89.0895,"lo2":-89.0444,"dy":0.0017,"dx":0.0017,"nx":28,"ny":28,"refTime":"2025-07-19T21:00:00:Z","depth":0,"parameterNumber":3,"parameterNumberName":"V-component_of_WINDS"},"data":[0,0,0,0,0,0,0,0,0,0,0,0,0,0,0,0,0,0,0,0,0,0,0,0,0,0,0,0,0,0,0,0,0,0,0,0,0,0,0,0,0,0,0,0,0,0,0,0,0,0,0,0,0,0,0,0,0,0,2.2178,2.2178,0,2.2222,2.2222,2.2223,2.2196,2.2195,2.2194,2.2193,2.2236,2.2239,2.2241,0,0,0,0,0,0,0,0,0,0,0,0,0,2.2068,2.207,2.2177,2.2178,2.2179,2.2222,2.2222,2.2223,2.2197,2.2195,2.2193,2.2192,2.2236,2.2238,2.2241,0,0,0,0,0,0,0,0,0,0,0,0,0,2.2114,2.207,2.2177,2.2171,2.2171,2.2221,2.2222,2.2223,2.2197,2.2195,2.2193,2.2191,2.2235,2.2238,2.2242,2.2301,0,0,2.2252,2.2254,0,0,0,0,0,0,0,0,2.2111,2.2118,2.2171,2.2171,2.2171,2.2202,2.2199,2.2249,2.2197,2.2187,2.2193,2.219,2.2226,2.223,2.2243,2.2303,2.2305,2.2253,2.2255,2.2256,2.2257,0,0,0,0,0,0,0,2.2108,2.2116,2.2195,2.2172,2.2172,2.2164,2.2169,2.2209,2.2217,2.2188,2.2186,2.2191,2.2226,2.2239,2.2243,2.2306,2.2252,2.2256,2.2258,2.2259,2.2414,2.2416,0,0,0,0,0,0,2.2106,2.2113,2.2193,2.2196,2.2136,2.2168,2.2173,2.2194,2.2216,2.2218,2.2193,2.219,2.2234,2.2239,2.2245,2.2314,2.2256,2.2259,2.2261,2.2412,2.2415,2.2417,0,0,0,0,0,0,2.2103,2.2113,2.2192,2.2154,2.2164,2.2172,2.2195,2.2196,2.2209,2.222,2.2221,2.2206,2.2233,2.224,2.2287,2.2316,2.2261,2.2264,2.241,2.2413,2.2416,2.2455,0,0,0,0,0,0,2.21,2.2112,2.2136,2.2155,2.2166,2.2234,2.2197,2.2198,2.2215,2.2212,2.2232,2.2234,2.2232,2.2282,2.229,2.2319,2.2267,2.2407,2.2411,2.2415,2.2451,2.2459,2.2466,0,0,0,0,0,2.2097,2.2146,2.2137,2.2147,2.2196,2.2236,2.2242,2.2239,2.2218,2.2241,2.2248,2.2233,2.2311,2.2287,2.2296,2.2327,2.2405,2.241,2.2414,2.2448,2.2457,2.2466,0,0,0,0,0,0,2.213,2.2148,2.2139,2.2196,2.2214,2.2231,2.226,2.225,2.2274,2.227,2.2265,2.227,2.2319,2.2327,2.23,2.2384,2.2355,2.2361,2.2377,2.2386,2.2393,2.239,2.227,0,0,0,0,0,2.2144,2.2176,2.2189,2.2238,2.2248,2.2253,2.227,2.2266,2.2285,2.2293,2.2303,2.2321,2.2349,2.2368,2.2395,2.2452,2.2455,2.2478,2.2485,2.2491,2.2496,2.2525,2.2535,2.2432,2.2432,2.2431,0,0,2.2173,2.2187,2.2207,2.2245,2.2259,2.2291,2.2259,2.2295,2.2318,2.2298,2.2342,2.235,2.237,2.2422,2.2445,2.2431,2.2526,2.2497,2.2501,2.2504,2.2531,2.2541,2.2549,2.2435,2.2434,2.2434,0,0,2.2243,2.2257,2.2298,2.2312,2.2333,2.2336,2.2346,2.2364,2.2368,2.2413,2.2397,2.2424,2.2474,2.2488,2.2502,2.2574,2.2561,2.2582,2.262,2.2649,2.2657,2.2664,2.2688,2.2697,2.2588,2.2588,2.2588,0,2.2276,2.2324,2.2321,2.2357,2.2373,2.2356,2.2396,2.241,2.2439,2.245,2.2433,2.2494,2.2506,2.256,2.2577,2.2589,2.2599,2.258,2.2656,2.2663,2.267,2.2693,2.2702,2.2591,2.259,2.259,2.259,0,2.2364,2.2397,2.2428,2.2455,2.2475,2.2513,2.2514,2.2534,2.2528,2.2532,2.2576,2.259,2.2618,2.2631,2.2626,2.2683,2.2673,2.2657,2.2627,2.2682,2.2704,2.2713,2.2594,2.2593,2.2593,2.2592,0,0,2.2457,2.248,2.2492,2.2503,2.2524,2.2549,2.2586,2.2614,2.263,2.265,2.268,2.2721,2.2705,2.272,2.2716,2.2741,2.2795,2.272,2.2721,2.2733,2.2857,2.2869,2.288,2.2786,2.2788,2.2789,2.2855,0,2.2526,2.2591,2.2587,2.2647,2.2677,2.266,2.2691,2.2707,2.2711,2.2736,2.274,2.2768,2.2746,2.2754,2.2778,2.2783,2.282,2.2779,2.2812,2.2814,2.2808,2.2891,2.2905,2.2967,2.2864,2.2865,2.2866,0,2.2617,2.2639,2.2702,2.2717,2.2729,2.2758,2.2781,2.2806,2.2822,2.2823,2.2839,2.2831,2.2866,2.2835,2.2883,2.2855,2.2868,2.2873,2.2875,2.2878,2.2843,2.2896,2.2986,2.2995,2.288,2.2879,2.2878,0,2.2677,2.2723,2.2766,2.2776,2.2795,2.2815,2.2823,2.2838,2.2854,2.2874,2.2885,2.2909,2.2922,2.2941,2.2938,2.2916,2.2986,2.2956,2.2987,2.2987,2.3002,2.3001,2.3096,2.3012,2.3012,2.3012,2.3012,0,2.2755,2.2794,2.2792,2.2819,2.2861,2.2856,2.2897,2.2904,2.2916,2.2943,2.2929,2.2954,2.2949,2.2973,2.2972,2.301,2.3017,2.3017,2.3016,2.3018,2.3018,2.3027,2.3022,2.3014,2.3014,2.3013,2.3013,0,2.2829,2.283,2.2876,2.2889,2.2893,2.2923,2.2934,2.2958,2.296,2.2993,2.3001,2.3004,2.3031,2.3031,2.3062,2.3061,2.3108,2.3102,2.3103,2.3101,2.3132,2.3129,2.3235,2.3248,2.3157,2.3157,2.3158,0,2.2879,2.2908,2.2924,2.294,2.295,2.2977,2.2993,2.2988,2.3006,2.3025,2.3047,2.3073,2.3094,2.3139,2.3143,2.3166,2.3161,2.3196,2.3164,2.3165,2.316,2.3158,2.316,2.3202,2.3203,2.3204,2.3205,0,2.2966,2.2964,2.2988,2.3012,2.3031,2.305,2.3067,2.3081,2.3077,2.3097,2.3125,2.3141,2.3173,2.3198,2.3221,2.3228,2.3216,2.3215,2.3223,2.3225,2.3224,2.3224,2.3119,2.3213,2.3212,2.3211,2.3211,2.3211,2.3029,2.3053,2.3067,2.3094,2.3106,2.3121,2.3144,2.3148,2.3172,2.3197,2.3193,2.3224,2.3237,2.3265,2.3275,2.3298,2.3285,2.3298,2.3301,2.3304,2.3306,2.322,2.3302,2.3302,2.3302,2.3302,2.3301,0,2.3114,2.3122,2.3146,2.317,2.319,2.3177,2.3194,2.3212,2.3239,2.3253,2.3273,2.3304,2.3329,2.3334,2.3357,2.3375,2.337,2.3381,2.3379,2.3381,2.3317,2.3307,2.3385,2.3385,2.3385,2.3385,2.3385,2.3385,2.3161,2.3201,2.3201,2.3246,2.3253,2.3283,2.3294,2.3308,2.3318,2.3354,2.3374,2.3377,2.3387,2.3411,2.3432,2.3433,2.3442,2.3455,2.3454,2.3394,2.3386,2.3378,2.3368,2.3457,2.3457,2.3515,2.3516,2.3516]}]]